When you browse on this site, cookies collect data to enhance your experience and personalize the content and advertising you see.
Visit our Privacy Policy to learn more. By continuing to use the site, you agree to this use of cookies and data.

Météo par heure à Krasnyj Liman

Ce jour, 4 Août, Mardi

Heure Température Précipitation Vent Pression Humidité
00:00 +18°C° 0 mm 2 m/s 753 mmHg 64%
01:00 +17°C° 0 mm 2 m/s 753 mmHg 65%
02:00 +17°C° 0 mm 2 m/s 753 mmHg 67%
03:00 +18°C° 0 mm 1 m/s 753 mmHg 71%
04:00 +17°C° 0 mm 2 m/s 753 mmHg 72%
05:00 +17°C° 0 mm 2 m/s 753 mmHg 72%
06:00 +17°C° 0 mm 2 m/s 753 mmHg 73%
07:00 +19°C° 0 mm 2 m/s 753 mmHg 66%
08:00 +21°C° 0 mm 2 m/s 754 mmHg 59%
09:00 +24°C° 0 mm 2 m/s 754 mmHg 51%
10:00 +26°C° 0 mm 2 m/s 754 mmHg 47%
11:00 +27°C° 0 mm 2 m/s 754 mmHg 42%
12:00 +28°C° 0 mm 2 m/s 753 mmHg 37%
13:00 +29°C° 0 mm 3 m/s 753 mmHg 35%
14:00 +29°C° 0 mm 3 m/s 753 mmHg 34%
15:00 +30°C° 0 mm 3 m/s 753 mmHg 32%
16:00 +29°C° 0 mm 3 m/s 753 mmHg 34%
17:00 +29°C° 0 mm 4 m/s 753 mmHg 35%
18:00 +29°C° 0 mm 4 m/s 752 mmHg 37%
19:00 +27°C° 0 mm 4 m/s 753 mmHg 42%
20:00 +23°C° 0 mm 4 m/s 753 mmHg 48%
21:00 +21°C° 0 mm 3 m/s 753 mmHg 54%
22:00 +21°C° 0 mm 3 m/s 753 mmHg 56%
23:00 +20°C° 0 mm 3 m/s 753 mmHg 58%

Demain, 5 Août, Mercredi

Heure Température Précipitation Vent Pression Humidité
00:00 +19°C° 0 mm 3 m/s 753 mmHg 60%
01:00 +19°C° 0 mm 2 m/s 753 mmHg 62%
02:00 +18°C° 0 mm 2 m/s 753 mmHg 64%
03:00 +17°C° 0 mm 2 m/s 753 mmHg 66%
04:00 +17°C° 0 mm 2 m/s 753 mmHg 68%
05:00 +17°C° 0 mm 2 m/s 753 mmHg 69%
06:00 +17°C° 0 mm 2 m/s 753 mmHg 71%
07:00 +19°C° 0 mm 3 m/s 753 mmHg 64%
08:00 +21°C° 0 mm 3 m/s 753 mmHg 58%
09:00 +25°C° 0 mm 4 m/s 753 mmHg 51%
10:00 +26°C° 0 mm 4 m/s 753 mmHg 47%
11:00 +27°C° 0 mm 5 m/s 753 mmHg 43%
12:00 +28°C° 0 mm 5 m/s 753 mmHg 39%
13:00 +29°C° 0 mm 5 m/s 753 mmHg 38%
14:00 +29°C° 0 mm 6 m/s 753 mmHg 37%
15:00 +30°C° 0 mm 6 m/s 752 mmHg 37%
16:00 +29°C° 0 mm 6 m/s 752 mmHg 39%
17:00 +29°C° 0 mm 6 m/s 752 mmHg 41%
18:00 +28°C° 0 mm 6 m/s 752 mmHg 42%
19:00 +27°C° 0 mm 5 m/s 752 mmHg 49%
20:00 +25°C° 0 mm 4 m/s 753 mmHg 55%
21:00 +22°C° 0 mm 3 m/s 753 mmHg 61%
22:00 +21°C° 0 mm 3 m/s 753 mmHg 64%
23:00 +21°C° 0 mm 3 m/s 753 mmHg 67%

Après-demain, 6 Août, Jeudi

Heure Température Précipitation Vent Pression Humidité
00:00 +20°C° 0 mm 3 m/s 753 mmHg 70%
01:00 +20°C° 0 mm 3 m/s 753 mmHg 71%
02:00 +19°C° 0 mm 3 m/s 753 mmHg 73%
03:00 +19°C° 0 mm 3 m/s 753 mmHg 74%
04:00 +19°C° 0 mm 3 m/s 753 mmHg 76%
05:00 +18°C° 0 mm 3 m/s 753 mmHg 77%
06:00 +18°C° 0 mm 3 m/s 754 mmHg 78%
07:00 +20°C° 0 mm 4 m/s 754 mmHg 72%
08:00 +22°C° 0 mm 4 m/s 754 mmHg 66%
09:00 +25°C° 0 mm 5 m/s 754 mmHg 59%
10:00 +27°C° 0 mm 5 m/s 754 mmHg 55%
11:00 +29°C° 0 mm 5 m/s 754 mmHg 50%
12:00 +30°C° 0 mm 5 m/s 754 mmHg 46%
13:00 +32°C° 0 mm 5 m/s 754 mmHg 44%
14:00 +33°C° 0 mm 5 m/s 753 mmHg 42%
15:00 +34°C° 0 mm 5 m/s 753 mmHg 41%
16:00 +33°C° 0 mm 5 m/s 753 mmHg 43%
17:00 +32°C° 0 mm 5 m/s 753 mmHg 45%
18:00 +32°C° 0 mm 5 m/s 753 mmHg 46%
19:00 +29°C° 0 mm 5 m/s 753 mmHg 51%
20:00 +27°C° 0 mm 4 m/s 753 mmHg 56%
21:00 +25°C° 0 mm 4 m/s 753 mmHg 61%
22:00 +23°C° 0 mm 4 m/s 754 mmHg 62%
23:00 +22°C° 0 mm 3 m/s 754 mmHg 63%

7 Août, Vendredi

Heure Température Précipitation Vent Pression Humidité
00:00 +21°C° 0 mm 3 m/s 754 mmHg 63%
01:00 +21°C° 0 mm 3 m/s 754 mmHg 66%
02:00 +20°C° 0 mm 3 m/s 754 mmHg 68%
03:00 +19°C° 0 mm 3 m/s 754 mmHg 70%
04:00 +19°C° 0 mm 3 m/s 754 mmHg 72%
05:00 +19°C° 0 mm 3 m/s 754 mmHg 73%
06:00 +19°C° 0 mm 3 m/s 754 mmHg 75%
07:00 +21°C° 0 mm 4 m/s 754 mmHg 67%
08:00 +23°C° 0 mm 4 m/s 754 mmHg 60%
09:00 +26°C° 0 mm 5 m/s 754 mmHg 52%
10:00 +28°C° 0 mm 5 m/s 754 mmHg 47%
11:00 +29°C° 0 mm 5 m/s 754 mmHg 42%
12:00 +32°C° 0 mm 5 m/s 754 mmHg 37%
13:00 +32°C° 0 mm 5 m/s 753 mmHg 36%
14:00 +33°C° 0 mm 5 m/s 753 mmHg 34%
15:00 +33°C° 0 mm 5 m/s 752 mmHg 32%
16:00 +33°C° 0 mm 5 m/s 752 mmHg 34%
17:00 +32°C° 0 mm 4 m/s 752 mmHg 36%
18:00 +32°C° 0 mm 4 m/s 752 mmHg 38%
19:00 +29°C° 0 mm 4 m/s 752 mmHg 44%
20:00 +27°C° 0 mm 3 m/s 752 mmHg 50%
21:00 +25°C° 0 mm 3 m/s 752 mmHg 56%
22:00 +24°C° 0 mm 3 m/s 752 mmHg 62%
23:00 +22°C° 0 mm 3 m/s 752 mmHg 67%

8 Août, Samedi

Heure Température Précipitation Vent Pression Humidité
00:00 +22°C° 0 mm 3 m/s 752 mmHg 73%
01:00 +21°C° 0 mm 3 m/s 751 mmHg 78%
02:00 +20°C° 0 mm 3 m/s 751 mmHg 83%
03:00 +20°C° 0 mm 3 m/s 751 mmHg 88%
04:00 +20°C° 0 mm 3 m/s 751 mmHg 89%
05:00 +20°C° 0 mm 3 m/s 751 mmHg 90%
06:00 +19°C° 0 mm 3 m/s 751 mmHg 91%
07:00 +21°C° 0 mm 3 m/s 751 mmHg 83%
08:00 +23°C° 0 mm 4 m/s 751 mmHg 74%
09:00 +26°C° 0 mm 4 m/s 751 mmHg 65%
10:00 +27°C° 0.1 mm 4 m/s 750 mmHg 61%
11:00 +28°C° 0.1 mm 4 m/s 750 mmHg 57%
12:00 +29°C° 0.1 mm 5 m/s 750 mmHg 52%
13:00 +30°C° 0.1 mm 5 m/s 750 mmHg 51%
14:00 +30°C° 0.1 mm 5 m/s 749 mmHg 49%
15:00 +30°C° 0.1 mm 5 m/s 749 mmHg 48%
16:00 +30°C° 0.1 mm 5 m/s 749 mmHg 49%
17:00 +29°C° 0.1 mm 5 m/s 749 mmHg 50%
18:00 +29°C° 0.1 mm 5 m/s 748 mmHg 51%
19:00 +27°C° 0 mm 5 m/s 749 mmHg 53%
20:00 +26°C° 0 mm 5 m/s 749 mmHg 55%
21:00 +23°C° 0 mm 5 m/s 749 mmHg 57%
22:00 +22°C° 0 mm 5 m/s 749 mmHg 58%
23:00 +22°C° 0 mm 5 m/s 749 mmHg 58%

9 Août, Dimanche

Heure Température Précipitation Vent Pression Humidité
00:00 +21°C° 0 mm 5 m/s 749 mmHg 58%
01:00 +20°C° 0 mm 5 m/s 748 mmHg 60%
02:00 +20°C° 0 mm 5 m/s 748 mmHg 62%
03:00 +19°C° 0 mm 5 m/s 748 mmHg 63%
04:00 +19°C° 0 mm 5 m/s 748 mmHg 65%
05:00 +17°C° 0 mm 5 m/s 748 mmHg 68%
06:00 +17°C° 0 mm 5 m/s 748 mmHg 70%
07:00 +19°C° 0 mm 5 m/s 748 mmHg 64%
08:00 +21°C° 0 mm 6 m/s 748 mmHg 57%
09:00 +23°C° 0 mm 6 m/s 748 mmHg 51%
10:00 +24°C° 0 mm 6 m/s 748 mmHg 48%
11:00 +27°C° 0 mm 6 m/s 748 mmHg 45%
12:00 +28°C° 0 mm 6 m/s 748 mmHg 42%
13:00 +28°C° 0 mm 6 m/s 748 mmHg 41%
14:00 +28°C° 0 mm 5 m/s 748 mmHg 41%
15:00 +28°C° 0 mm 5 m/s 747 mmHg 40%
16:00 +28°C° 0 mm 5 m/s 747 mmHg 40%
17:00 +28°C° 0 mm 5 m/s 747 mmHg 39%
18:00 +27°C° 0 mm 5 m/s 747 mmHg 39%
19:00 +26°C° 0 mm 4 m/s 747 mmHg 43%
20:00 +23°C° 0 mm 4 m/s 747 mmHg 46%
21:00 +21°C° 0 mm 4 m/s 747 mmHg 50%
22:00 +20°C° 0 mm 4 m/s 748 mmHg 53%
23:00 +19°C° 0 mm 4 m/s 748 mmHg 56%
Voir plus